Weather History for Altus, OK

Change the Weather History Date:

Thursday, August 8, 2013

  Actual Average (KLTS) Record (KLTS)
Temperature  
Mean Temperature 85 °F -  
Max Temperature 98 °F 94 °F 109 °F (2011)
Min Temperature 72 °F 70 °F 66 °F (1997)
Cooling Degree Days 20    
Growing Degree Days 35 (Base 50)    
Moisture  
Dew Point 67 °F    
Average Humidity 66    
Maximum Humidity 86    
Minimum Humidity 29    
Precipitation  
Precipitation 0.11 in - - ()
Sea Level Pressure  
Sea Level Pressure 29.89 in    
Wind  
Wind Speed 9 mph (East)    
Max Wind Speed 22 mph    
Max Gust Speed 26 mph    
Visibility 10 miles    
Events Rain , Thunderstorm    
Averages and records for this station are not official NWS values.
T = Trace of Precipitation, MM = Missing Value Source: NWS Daily Summary

Daily Weather History Graph

Daily Weather History Graph

Search for Another Location

Airport:

Trip Planner

Search our weather history database for the weather conditions in past years. The results will help you decide how hot, cold, wet, or windy it might be!

Date:

Astronomy

Aug. 08, 2013 Rise Set
Actual Time 6:52 AM CDT 8:32 PM CDT
Civil Twilight 6:25 AM CDT 8:59 PM CDT
Nautical Twilight 5:52 AM CDT 9:32 PM CDT
Astronomical Twilight 5:18 AM CDT 10:06 PM CDT
Moon 8:34 AM CDT (8/8) 9:20 PM CDT (8/8)
Length of Visible Light 14h 33m
Length of Day
13h 39m
Waxing Crescent, 3% of the Moon is Illuminated
Aug 8
Waxing Crescent
Aug 14
First Quarter
Aug 20
Full
Aug 28
Last Quarter
Sep 5
New

Hourly Weather History & Observations

Time (CDT) Temp. Heat Index Dew Point Humidity Pressure Visibility Wind Dir Wind Speed Gust Speed Precip Events Conditions
12:15 AM 73.6 °F - 68.5 °F 84% 29.86 in 10.0 mi WNW 13.8 mph - 0.02 in Rain , Thunderstorm Thunderstorms and Rain
12:35 AM 73.9 °F - 68.2 °F 82% 29.85 in 10.0 mi West 10.4 mph - 0.04 in Rain , Thunderstorm Rain
12:55 AM 74.1 °F - 69.4 °F 85% 29.90 in 10.0 mi WSW 5.8 mph - 0.07 in Rain , Thunderstorm Thunderstorms and Rain
1:15 AM 74.3 °F - 69.8 °F 86% 29.89 in 10.0 mi West 5.8 mph - 0.01 in Rain Light Rain
1:35 AM 75.0 °F - 69.4 °F 83% 29.88 in 10.0 mi West 5.8 mph - 0.02 in Rain Light Rain
1:55 AM 74.8 °F - 70.3 °F 86% 29.86 in 10.0 mi NNW 3.5 mph - 0.02 in   Scattered Clouds
2:15 AM 74.7 °F - 70.2 °F 86% 29.84 in 10.0 mi Calm Calm - N/A   Clear
2:35 AM 74.5 °F - 70.2 °F 86% 29.85 in 10.0 mi North 6.9 mph - N/A Thunderstorm Clear
2:55 AM 74.8 °F - 69.8 °F 84% 29.88 in 10.0 mi NE 6.9 mph - N/A   Clear
3:15 AM 76.1 °F - 68.9 °F 78% 29.88 in 10.0 mi ENE 5.8 mph - N/A   Clear
3:35 AM 75.4 °F - 69.1 °F 81% 29.87 in 10.0 mi North 5.8 mph - N/A   Clear
3:55 AM 74.8 °F - 68.7 °F 81% 29.86 in 10.0 mi NNE 12.7 mph - N/A   Clear
4:15 AM 74.5 °F - 68.7 °F 82% 29.87 in 10.0 mi NE 4.6 mph - N/A   Clear
4:35 AM 74.5 °F - 68.7 °F 82% 29.89 in 10.0 mi ENE 4.6 mph - N/A   Clear
4:55 AM 73.9 °F - 68.4 °F 83% 29.88 in 10.0 mi NNE 5.8 mph - N/A   Clear
5:15 AM 73.6 °F - 68.0 °F 83% 29.87 in 10.0 mi NNE 10.4 mph - N/A   Clear
5:35 AM 73.2 °F - 68.2 °F 84% 29.88 in 10.0 mi NNE 9.2 mph - N/A   Clear
5:55 AM 73.4 °F - 68.0 °F 83% 29.91 in 10.0 mi East 3.5 mph - N/A   Clear
6:15 AM 73.4 °F - 68.2 °F 84% 29.92 in 10.0 mi NNE 4.6 mph - N/A Rain Light Rain
6:35 AM 73.0 °F - 67.5 °F 83% 29.92 in 10.0 mi NE 10.4 mph - N/A   Drizzle
6:55 AM 72.5 °F - 67.6 °F 85% 29.92 in 10.0 mi ENE 9.2 mph 17.3 mph N/A   Scattered Clouds
7:15 AM 72.0 °F - 67.6 °F 86% 29.91 in 10.0 mi NE 12.7 mph - N/A   Clear
7:35 AM 72.1 °F - 67.5 °F 85% 29.94 in 10.0 mi East 4.6 mph - N/A   Clear
7:55 AM 72.5 °F - 67.1 °F 83% 29.94 in 10.0 mi East 5.8 mph - N/A   Clear
8:15 AM 72.5 °F - 66.9 °F 83% 29.93 in 10.0 mi ENE 9.2 mph - N/A   Clear
8:35 AM 72.7 °F - 66.4 °F 81% 29.92 in 10.0 mi ENE 11.5 mph - N/A   Clear
8:55 AM 73.6 °F - 67.1 °F 80% 29.94 in 10.0 mi East 9.2 mph - N/A   Clear
9:15 AM 75.4 °F - 67.6 °F 77% 29.94 in 10.0 mi East 10.4 mph - N/A   Clear
9:35 AM 75.4 °F - 68.0 °F 78% 29.94 in 10.0 mi East 9.2 mph - N/A   Clear
9:55 AM 75.9 °F - 68.2 °F 77% 29.93 in 10.0 mi East 10.4 mph - N/A   Clear
10:15 AM 78.6 °F - 67.3 °F 68% 29.93 in 10.0 mi ESE 13.8 mph - N/A   Clear
10:35 AM 79.5 °F - 67.6 °F 67% 29.93 in 10.0 mi ESE 11.5 mph - N/A   Clear
10:55 AM 82.4 °F 85.2 °F 67.6 °F 61% 29.93 in 10.0 mi ESE 12.7 mph 19.6 mph N/A   Clear
11:15 AM 82.8 °F 85.1 °F 66.6 °F 58% 29.93 in 10.0 mi ESE 13.8 mph - N/A   Clear
11:35 AM 83.1 °F 85.9 °F 67.3 °F 59% 29.93 in 10.0 mi ESE 12.7 mph - N/A   Clear
11:55 AM 86.2 °F 89.1 °F 67.5 °F 53% 29.93 in 10.0 mi SE 15.0 mph 18.4 mph N/A   Clear
12:15 PM 87.1 °F 90.2 °F 67.6 °F 52% 29.93 in 10.0 mi ESE 12.7 mph - N/A   Clear
12:35 PM 87.8 °F 90.7 °F 67.1 °F 50% 29.93 in 10.0 mi East 11.5 mph 17.3 mph N/A   Clear
12:55 PM 88.2 °F 90.6 °F 66.4 °F 48% 29.92 in 10.0 mi ESE 11.5 mph - N/A   Clear
1:15 PM 88.9 °F 91.4 °F 66.6 °F 47% 29.92 in 10.0 mi ESE 9.2 mph - N/A   Clear
1:35 PM 90.0 °F 93.2 °F 67.1 °F 47% 29.92 in 10.0 mi SE 6.9 mph - N/A   Clear
1:55 PM 90.7 °F 94.5 °F 67.8 °F 47% 29.91 in 10.0 mi East 6.9 mph - N/A   Clear
2:15 PM 91.4 °F 95.4 °F 68.0 °F 46% 29.91 in 10.0 mi East 8.1 mph - N/A   Clear
2:35 PM 93.6 °F 97.4 °F 67.1 °F 42% 29.90 in 10.0 mi SE 11.5 mph - N/A   Clear
2:55 PM 93.9 °F 97.5 °F 67.1 °F 41% 29.89 in 10.0 mi East 10.4 mph - N/A   Clear
3:15 PM 94.5 °F 98.0 °F 66.6 °F 40% 29.88 in 10.0 mi ENE 8.1 mph - N/A   Clear
3:35 PM 95.7 °F 98.7 °F 65.8 °F 37% 29.87 in 10.0 mi ENE 4.6 mph - N/A   Clear
3:55 PM 97.5 °F 100.3 °F 64.8 °F 34% 29.86 in 10.0 mi SE 10.4 mph 18.4 mph N/A   Clear
4:15 PM 97.0 °F 97.8 °F 61.7 °F 31% 29.85 in 10.0 mi South 3.5 mph - N/A   Clear
4:35 PM 98.1 °F 99.1 °F 62.1 °F 30% 29.85 in 10.0 mi SSE 5.8 mph - N/A   Clear
4:55 PM 97.0 °F 97.8 °F 61.5 °F 31% 29.83 in 10.0 mi SSE 8.1 mph - N/A   Clear
5:15 PM 97.5 °F 98.2 °F 61.5 °F 30% 29.82 in 10.0 mi SE 4.6 mph - N/A   Clear
5:35 PM 98.1 °F 99.1 °F 61.3 °F 30% 29.82 in 10.0 mi East 4.6 mph - N/A   Clear
5:55 PM 97.3 °F 97.5 °F 60.4 °F 29% 29.81 in 10.0 mi SE 3.5 mph - N/A   Clear
6:15 PM 97.3 °F 97.9 °F 61.2 °F 30% 29.81 in 10.0 mi ENE 5.8 mph - N/A   Clear
6:35 PM 96.3 °F 97.2 °F 61.9 °F 32% 29.81 in 10.0 mi SE 5.8 mph - N/A   Clear
6:55 PM 96.3 °F 96.7 °F 61.2 °F 31% 29.81 in 10.0 mi Calm Calm - N/A   Clear
7:15 PM 91.9 °F 96.4 °F 68.2 °F 46% 29.83 in 10.0 mi ENE 10.4 mph - N/A   Scattered Clouds
7:35 PM 86.4 °F 91.4 °F 70.7 °F 59% 29.85 in 10.0 mi ENE 16.1 mph 26.5 mph N/A   Scattered Clouds
7:55 PM 82.4 °F 85.2 °F 67.6 °F 61% 29.87 in 10.0 mi ENE 13.8 mph - N/A Thunderstorm Thunderstorm
8:15 PM 79.5 °F - 66.6 °F 64% 29.87 in 10.0 mi ENE 19.6 mph - N/A Thunderstorm Scattered Clouds
8:35 PM 76.1 °F - 68.4 °F 77% 29.90 in 7.0 mi ESE 21.9 mph 26.5 mph 0.02 in Rain , Thunderstorm Rain
8:55 PM 73.6 °F - 66.6 °F 79% 29.91 in 10.0 mi East 19.6 mph 23.0 mph 0.02 in Thunderstorm Overcast
9:15 PM 73.4 °F - 65.7 °F 77% 29.92 in 10.0 mi East 12.7 mph 20.7 mph N/A   Scattered Clouds
9:35 PM 73.4 °F - 68.4 °F 84% 29.91 in 10.0 mi ESE 13.8 mph - N/A   Clear
9:55 PM 74.5 °F - 68.9 °F 83% 29.92 in 10.0 mi East 9.2 mph - N/A   Clear
10:15 PM 75.2 °F - 66.4 °F 74% 29.92 in 10.0 mi ENE 10.4 mph - N/A   Clear
10:35 PM 75.2 °F - 64.9 °F 70% 29.91 in 10.0 mi East 8.1 mph - N/A   Clear
10:55 PM 74.7 °F - 65.5 °F 73% 29.90 in 10.0 mi East 6.9 mph - N/A   Clear
11:15 PM 73.9 °F - 66.4 °F 77% 29.88 in 10.0 mi Calm Calm - N/A   Clear
11:35 PM 73.2 °F - 68.0 °F 84% 29.91 in 10.0 mi WNW 4.6 mph - N/A   Clear
11:55 PM 73.4 °F - 68.0 °F 83% 29.92 in 10.0 mi West 3.5 mph - N/A   Clear